This demonstration page uses our WeatherBlox Daily Observations layout. Learn more.

Left ArrowRight Arrow

Hourly Observations for March 8, 2016

Temp ( °F °C ) Dew Point ( °F °C ) Humidity (%) Winds ( mph kmh ) Pressure ( in mb ) Visibility ( mi km ) Precip ( " mm )
12:15 am 00:15 Clear 52 11 36 2 54 54 SSW 18 30 29.56 1001 10 16 0.00 0.00
12:35 am 00:35 Clear 50 10 36 2 58 58 WSW 20 31 29.56 1001 10 16 0.00 0.00
12:55 am 00:55 Clear 48 9 36 2 62 62 SW 20 31 29.56 1001 10 16 0.00 0.00
1:15 am 01:15 Clear 48 9 36 2 62 62 SW 17 28 29.56 1001 10 16 0.00 0.00
1:35 am 01:35 Clear 48 9 36 2 62 62 WSW 14 22 29.56 1001 10 16 0.00 0.00
1:55 am 01:55 Clear 46 8 36 2 66 66 W 12 19 29.59 1002 10 16 0.00 0.00
2:15 am 02:15 Clear 46 8 36 2 66 66 W 8 13 29.59 1002 10 16 0.00 0.00
2:35 am 02:35 Clear 45 7 36 2 71 71 W 10 17 29.62 1003 10 16 0.00 0.00
2:55 am 02:55 Clear 45 7 36 2 71 71 SW 12 19 29.62 1003 10 16 0.00 0.00
3:15 am 03:15 Clear 45 7 36 2 71 71 SW 12 19 29.62 1003 10 16 0.00 0.00
3:35 am 03:35 Clear 43 6 36 2 76 76 SW 13 20 29.62 1003 10 16 0.00 0.00
3:55 am 03:55 Clear 45 7 36 2 71 71 W 14 22 29.62 1003 10 16 0.00 0.00
4:15 am 04:15 Clear 45 7 36 2 71 71 W 13 20 29.65 1004 10 16 0.00 0.00
4:35 am 04:35 Clear 43 6 36 2 76 76 W 12 19 29.65 1004 10 16 0.00 0.00
4:55 am 04:55 Clear 43 6 36 2 76 76 W 10 17 29.65 1004 10 16 0.00 0.00
5:15 am 05:15 Clear 43 6 36 2 76 76 W 13 20 29.68 1005 10 16 0.00 0.00
5:35 am 05:35 Clear 43 6 36 2 76 76 W 12 19 29.68 1005 10 16 0.00 0.00
5:55 am 05:55 Clear 43 6 36 2 76 76 W 10 17 29.71 1006 10 16 0.00 0.00
6:15 am 06:15 Clear 43 6 36 2 76 76 W 13 20 29.71 1006 10 16 0.00 0.00
6:35 am 06:35 Clear 43 6 36 2 76 76 WNW 12 19 29.71 1006 10 16 0.00 0.00
6:55 am 06:55 Clear 41 5 36 2 81 81 WNW 10 17 29.77 1008 10 16 0.00 0.00
7:15 am 07:15 Sunny 39 4 36 2 87 87 WNW 12 19 29.77 1008 10 16 0.00 0.00
7:35 am 07:35 Sunny 41 5 36 2 81 81 WNW 10 17 29.77 1008 10 16 0.00 0.00
7:55 am 07:55 Sunny 43 6 36 2 76 76 WNW 14 22 29.74 1007 10 16 0.00 0.00
8:15 am 08:15 Sunny 43 6 36 2 76 76 WNW 14 22 29.77 1008 10 16 0.00 0.00
8:35 am 08:35 Sunny 45 7 36 2 71 71 W 13 20 29.80 1009 10 16 0.00 0.00
8:55 am 08:55 Sunny 46 8 36 2 66 66 WNW 15 24 29.80 1009 10 16 0.00 0.00
9:15 am 09:15 Sunny 48 9 36 2 62 62 NW 14 22 29.80 1009 10 16 0.00 0.00
9:35 am 09:35 Sunny 48 9 36 2 62 62 WNW 18 30 29.83 1010 10 16 0.00 0.00
9:55 am 09:55 Sunny 50 10 36 2 58 58 NW 16 26 29.83 1010 10 16 0.00 0.00
10:15 am 10:15 Sunny 52 11 36 2 54 54 NW 14 22 29.80 1009 10 16 0.00 0.00
10:35 am 10:35 Sunny 52 11 36 2 54 54 NW 12 19 29.80 1009 10 16 0.00 0.00
10:55 am 10:55 Sunny 52 11 36 2 54 54 NNW 15 24 29.80 1009 10 16 0.00 0.00
11:15 am 11:15 Sunny 54 12 36 2 51 51 NW 13 20 29.80 1009 10 16 0.00 0.00
11:35 am 11:35 Sunny 54 12 36 2 51 51 NW 14 22 29.80 1009 10 16 0.00 0.00
11:55 am 11:55 Sunny 55 13 36 2 47 47 NW 10 17 29.80 1009 10 16 0.00 0.00
12:15 pm 12:15 Sunny 55 13 36 2 47 47 NNW 13 20 29.80 1009 10 16 0.00 0.00
12:35 pm 12:35 Sunny 55 13 36 2 47 47 NW 12 19 29.80 1009 10 16 0.00 0.00
12:55 pm 12:55 Sunny 57 14 36 2 44 44 WNW 15 24 29.77 1008 10 16 0.00 0.00
1:15 pm 13:15 Sunny 57 14 36 2 44 44 WNW 12 19 29.77 1008 10 16 0.00 0.00
1:35 pm 13:35 Sunny 57 14 36 2 44 44 NW 13 20 29.74 1007 10 16 0.00 0.00
1:55 pm 13:55 Sunny 57 14 34 1 41 41 NW 8 13 29.74 1007 10 16 0.00 0.00
2:15 pm 14:15 Sunny 57 14 34 1 41 41 NNW 7 11 29.74 1007 10 16 0.00 0.00
2:35 pm 14:35 Sunny 57 14 34 1 41 41 NNW 10 17 29.74 1007 10 16 0.00 0.00
2:55 pm 14:55 Sunny 57 14 34 1 41 41 N 8 13 29.74 1007 10 16 0.00 0.00
3:15 pm 15:15 Sunny 57 14 34 1 41 41 undefined N/A 29.74 1007 10 16 0.00 0.00
3:35 pm 15:35 Sunny 57 14 34 1 41 41 N 13 20 29.74 1007 10 16 0.00 0.00
3:55 pm 15:55 Sunny 57 14 36 2 44 44 N 13 20 29.74 1007 10 16 0.00 0.00
4:15 pm 16:15 Sunny 57 14 34 1 41 41 N 16 26 29.74 1007 10 16 0.00 0.00
4:35 pm 16:35 Sunny 55 13 34 1 44 44 N 15 24 29.77 1008 10 16 0.00 0.00
4:55 pm 16:55 Sunny 55 13 34 1 44 44 N 15 24 29.77 1008 10 16 0.00 0.00
5:15 pm 17:15 Sunny 54 12 34 1 47 47 N 14 22 29.80 1009 10 16 0.00 0.00
5:35 pm 17:35 Sunny 54 12 34 1 47 47 N 18 30 29.80 1009 10 16 0.00 0.00
5:55 pm 17:55 Sunny 52 11 34 1 50 50 NNE 17 28 29.80 1009 10 16 0.00 0.00
6:15 pm 18:15 Sunny 50 10 34 1 54 54 NNE 13 20 29.83 1010 10 16 0.00 0.00
6:35 pm 18:35 Sunny 48 9 34 1 58 58 N 14 22 29.83 1010 10 16 0.00 0.00
6:55 pm 18:55 Clear 46 8 34 1 62 62 N 12 19 29.83 1010 10 16 0.00 0.00
7:15 pm 19:15 Clear 45 7 34 1 66 66 NNE 8 13 29.85 1011 10 16 0.00 0.00
7:35 pm 19:35 Mostly Cloudy 43 6 34 1 71 71 NNE 8 13 29.91 1013 10 16 0.00 0.00
7:55 pm 19:55 Cloudy 45 7 34 1 66 66 NE 7 11 29.91 1013 10 16 0.00 0.00
8:15 pm 20:15 Partly Cloudy 41 5 32 0 70 70 NNE 7 11 29.91 1013 10 16 0.00 0.00
8:35 pm 20:35 Clear 39 4 32 0 75 75 NNE 6 9 29.91 1013 10 16 0.00 0.00
8:55 pm 20:55 Clear 39 4 32 0 75 75 NNE 8 13 29.91 1013 10 16 0.00 0.00
9:15 pm 21:15 Clear 39 4 32 0 75 75 NE 6 9 29.91 1013 10 16 0.00 0.00
9:35 pm 21:35 Clear 39 4 34 1 81 81 NE 7 11 29.91 1013 10 16 0.00 0.00
9:55 pm 21:55 Clear 39 4 34 1 81 81 NNE 8 13 29.91 1013 10 16 0.00 0.00
10:15 pm 22:15 Clear 39 4 32 0 75 75 NNE 9 15 29.91 1013 10 16 0.00 0.00
10:35 pm 22:35 Clear 37 3 32 0 81 81 NNE 7 11 29.94 1014 10 16 0.00 0.00
10:55 pm 22:55 Clear 37 3 32 0 81 81 N 6 9 29.94 1014 10 16 0.00 0.00
11:15 pm 23:15 Clear 39 4 34 1 81 81 N 3 6 29.91 1013 10 16 0.00 0.00
11:35 pm 23:35 Clear 39 4 34 1 81 81 N 5 7 29.91 1013 10 16 0.00 0.00
11:55 pm 23:55 Clear 37 3 30 -1 75 75 Calm 29.94 1014 10 16 0.00 0.00

Powered by AerisWeather